Hourly Data Report for October 14, 2014

All times are specified in Local Standard Time (LST). Add 1 hour to adjust for Daylight Saving Time where and when it is observed.

OTTAWA INTL A
ONTARIO

45°19'00.000" N
75°40'00.000" W
114.90 m
6106001
71628
YOW

Download Data

Hourly Data (October 2014)
Hourly Data Report for October 14, 2014
Temp Definition
°C
Dew Point Temp Definition
°C
Rel Hum Definition
%
Wind Dir Definition
10's deg

Wind Spd Definition
km/h
Visibility Definition
km
Stn Press Definition
kPa
Hmdx Definition


Wind Chill Definition


Weather Definition


TIME
00:00 Legend Double Dagger 14.7 12.4 86 16 10 24.1 100.41     LegendNANA
01:00 Legend Double Dagger 14.6 12.5 87 17 8 24.1 100.40     Cloudy
02:00 Legend Double Dagger 13.5 12.2 92 14 8 24.1 100.38     LegendNANA
03:00 Legend Double Dagger 13.4 12.3 93 11 8 24.1 100.33     LegendNANA
04:00 Legend Double Dagger 12.7 12.1 96 11 11 24.1 100.31     Mostly Cloudy
05:00 Legend Double Dagger 13.0 12.2 95 12 11 24.1 100.34     LegendNANA
06:00 Legend Double Dagger 12.1 11.6 97 10 13 24.1 100.30     LegendNANA
07:00 Legend Double Dagger 13.1 12.5 96 11 15 24.1 100.31     Mostly Cloudy
08:00 Legend Double Dagger 14.1 13.2 94 13 13 24.1 100.29     LegendNANA
09:00 Legend Double Dagger 18.0 14.9 82 17 14 24.1 100.26     LegendNANA
10:00 Legend Double Dagger 20.8 15.7 72 20 18 24.1 100.17 25   Mainly Clear
11:00 Legend Double Dagger 23.4 16.8 66 21 29 24.1 100.08 29   LegendNANA
12:00 Legend Double Dagger 24.9 17.0 61 21 25 24.1 100.02 30   LegendNANA
13:00 Legend Double Dagger 23.9 16.8 64 20 35 24.1 99.98 29   Mostly Cloudy
14:00 Legend Double Dagger 24.6 17.2 63 20 31 24.1 99.92 30   LegendNANA
15:00 Legend Double Dagger 25.0 16.8 60 20 23 24.1 99.91 30   LegendNANA
16:00 Legend Double Dagger 25.0 15.8 56 20 27 24.1 99.86 29   Mostly Cloudy
17:00 Legend Double Dagger 24.1 15.5 58 19 16 24.1 99.81 28   LegendNANA
18:00 Legend Double Dagger 21.7 15.4 67 17 9 24.1 99.87 26   LegendNANA
19:00 Legend Double Dagger 22.5 15.7 65 18 18 24.1 99.90 27   Mostly Cloudy
20:00 Legend Double Dagger 19.5 17.1 86 18 14 24.1 99.91     LegendNANA
21:00 Legend Double Dagger 19.6 16.9 84 16 13 24.1 99.90     LegendNANA
22:00 Legend Double Dagger 19.9 16.0 78 17 12 24.1 99.90     Cloudy
23:00 Legend Double Dagger 19.3 15.8 80 16 10 24.1 99.90     LegendNANA

Notes on Data Quality.

Legend

  • E = Estimated
  • M = Missing
  • NA = Not Available
  • ‡ = Partner data that is not subject to review by the National Climate Archives
Date modified: